Location: Poughquag
(41.6090°N, 73.6820°W)
Time: 10:27:17
(UTC-05:00)

SR - Pass Details

Date: 09 December 2023
Orbit: 574 x 868 km, 66.7° (Epoch: 25 February)

Event Time Altitude Azimuth Distance (km) Brightness Sun altitude
Rises 18:35:45 0° 333° (NNW) 3,449 ? -23.8°
Reaches altitude 10° 18:38:21 10° 337° (NNW) 2,491 ? -24.2°
Enters shadow 18:43:02 48° 19° (NNE) 1,077 ? -25.1°
Maximum altitude 18:44:01 54° 55° (NE) 993 - -25.3°
Drops below altitude 10° 18:49:19 10° 133° (SE) 2,332 - -26.3°
Sets 18:51:40 0° 137° (SE) 3,211 - -26.7°
